Вернуться в каталог

THORAD DELTA 1 DEB

АктивенLEO
NORAD 9695·DEBRIS·🇺🇸 United States

Запущен Nov 15, 1974 с Vandenberg Space Force Base

Loading…

Ближайшие Пролёты (ближайшие 24 часа)

TLE

СвежийSource: Space-Track

Эпоха: Sep 14, 2026, 07:42 UTC

1 09695U 74089DU  26257.32108186  .00000537  00000-0  70631-3 0  9993
2 09695 103.0118 301.9964 0279831 105.0156 258.2115 13.53052172452391

Отслеживайте THORAD DELTA 1 DEB в реальном времени с AllMySat

Download on the App Store